NAC35 KMCI-KSTL

Flight info

Callsign NAC35
Flight time 0h 41m
Altitude 33000
Route LAKES5 COU KAYLA KAYLA3
Aircraft B737/M-SDE2E3FGHIRWXY/LB1

Departure

Time 2026-05-07 21:09
Airport Kansas City International Airport (KMCI)

Arrival

Time 2026-05-07 21:50
Airport St. Louis Lambert International Airport (KSTL)
Time Latitude Longitude Altitude Speed Heading
2026-05-07 20:56 39.30617 -94.72088 1013 ft 0 kts 194°
2026-05-07 21:03 39.30626 -94.72085 1013 ft 2 kts 194°
2026-05-07 21:04 39.30642 -94.72080 1013 ft 2 kts 194°
2026-05-07 21:04 39.30658 -94.72075 1013 ft 2 kts 194°
2026-05-07 21:04 39.30673 -94.72068 1013 ft 2 kts 227°
2026-05-07 21:04 39.30679 -94.72053 1013 ft 1 kts 277°
2026-05-07 21:05 39.30679 -94.72050 1013 ft 0 kts 279°
2026-05-07 21:05 39.30685 -94.72104 1013 ft 15 kts 279°
2026-05-07 21:06 39.30750 -94.72237 1013 ft 22 kts 359°
2026-05-07 21:06 39.30930 -94.72188 1013 ft 31 kts 12°
2026-05-07 21:06 39.31171 -94.72118 1013 ft 40 kts 13°
2026-05-07 21:06 39.31464 -94.72029 1013 ft 46 kts 13°
2026-05-07 21:07 39.31769 -94.71939 1013 ft 43 kts 14°
2026-05-07 21:07 39.32028 -94.71862 1013 ft 19 kts
2026-05-07 21:07 39.32153 -94.71845 1014 ft 18 kts 331°
2026-05-07 21:07 39.32193 -94.71964 1014 ft 13 kts 283°
2026-05-07 21:08 39.32201 -94.72076 1014 ft 13 kts 238°
2026-05-07 21:08 39.31966 -94.72158 1014 ft 73 kts 194°
2026-05-07 21:08 39.31236 -94.72376 1014 ft 140 kts 194°
2026-05-07 21:08 39.30148 -94.72719 1378 ft 175 kts 195°
2026-05-07 21:09 39.28898 -94.72739 2301 ft 186 kts 167°
2026-05-07 21:09 39.27849 -94.71786 3521 ft 193 kts 130°
2026-05-07 21:09 39.27204 -94.70133 4123 ft 221 kts 118°
2026-05-07 21:09 39.26582 -94.68185 4378 ft 246 kts 116°
2026-05-07 21:10 39.25942 -94.66071 4845 ft 259 kts 115°
2026-05-07 21:10 39.25280 -94.63861 5346 ft 270 kts 114°
2026-05-07 21:10 39.24572 -94.61512 5677 ft 291 kts 114°
2026-05-07 21:10 39.23818 -94.59020 6252 ft 304 kts 113°
2026-05-07 21:11 39.23047 -94.56476 7057 ft 307 kts 112°
2026-05-07 21:11 39.22261 -94.53899 7821 ft 311 kts 112°
2026-05-07 21:11 39.20645 -94.48634 9359 ft 319 kts 112°
2026-05-07 21:12 39.19821 -94.45959 10107 ft 324 kts 112°
2026-05-07 21:12 39.19264 -94.44154 10436 ft 333 kts 111°
2026-05-07 21:12 39.18375 -94.41279 10621 ft 357 kts 111°
2026-05-07 21:12 39.17429 -94.38222 10901 ft 375 kts 111°
2026-05-07 21:13 39.16446 -94.35052 11427 ft 385 kts 111°
2026-05-07 21:13 39.15446 -94.31831 12098 ft 389 kts 111°
2026-05-07 21:13 39.14436 -94.28579 12820 ft 393 kts 111°
2026-05-07 21:13 39.13414 -94.25295 13513 ft 398 kts 111°
2026-05-07 21:14 39.12377 -94.21961 14133 ft 403 kts 111°
2026-05-07 21:14 39.11327 -94.18598 14755 ft 407 kts 111°
2026-05-07 21:14 39.10272 -94.15200 15366 ft 411 kts 110°
2026-05-07 21:14 39.09466 -94.11655 15949 ft 415 kts 99°
2026-05-07 21:15 39.09114 -94.07965 16553 ft 417 kts 92°
2026-05-07 21:15 39.08889 -94.04231 17162 ft 421 kts 92°
2026-05-07 21:15 39.08681 -94.00455 17739 ft 426 kts 92°
2026-05-07 21:15 39.08468 -93.96627 18322 ft 430 kts 92°
2026-05-07 21:16 39.08244 -93.92764 18808 ft 435 kts 92°
2026-05-07 21:16 39.08007 -93.88864 19314 ft 439 kts 92°
2026-05-07 21:16 39.07759 -93.84936 19820 ft 443 kts 93°
2026-05-07 21:16 39.07503 -93.80970 20308 ft 447 kts 93°
2026-05-07 21:17 39.07241 -93.76963 20790 ft 451 kts 93°
2026-05-07 21:17 39.06973 -93.72916 21275 ft 455 kts 93°
2026-05-07 21:17 39.06703 -93.68841 21760 ft 459 kts 93°
2026-05-07 21:17 39.06428 -93.64728 22222 ft 463 kts 93°
2026-05-07 21:18 39.06150 -93.60575 22674 ft 468 kts 94°
2026-05-07 21:18 39.05868 -93.56390 23135 ft 472 kts 94°
2026-05-07 21:18 39.05583 -93.52172 23589 ft 475 kts 94°
2026-05-07 21:18 39.05294 -93.47919 23949 ft 480 kts 94°
2026-05-07 21:19 39.05004 -93.43681 24289 ft 484 kts 94°
2026-05-07 21:19 39.04702 -93.39296 24653 ft 488 kts 94°
2026-05-07 21:19 39.04401 -93.34944 25106 ft 488 kts 94°
2026-05-07 21:19 39.04099 -93.30604 25624 ft 487 kts 94°
2026-05-07 21:20 39.03795 -93.26254 26085 ft 488 kts 95°
2026-05-07 21:20 39.03493 -93.21959 26497 ft 490 kts 95°
2026-05-07 21:20 39.03181 -93.17532 26980 ft 491 kts 95°
2026-05-07 21:20 39.02875 -93.13219 27420 ft 491 kts 95°
2026-05-07 21:21 39.02558 -93.08781 27865 ft 492 kts 95°
2026-05-07 21:21 39.02248 -93.04454 28329 ft 493 kts 95°
2026-05-07 21:21 39.01932 -93.00072 28845 ft 492 kts 95°
2026-05-07 21:21 39.01614 -92.95680 29030 ft 497 kts 95°
2026-05-07 21:22 39.00895 -92.86710 29012 ft 512 kts 101°
2026-05-07 21:22 38.98821 -92.77899 29021 ft 520 kts 115°
2026-05-07 21:23 38.96016 -92.69215 29012 ft 532 kts 116°
2026-05-07 21:23 38.93212 -92.60465 28971 ft 518 kts 115°
2026-05-07 21:24 38.91890 -92.56237 28980 ft 501 kts 115°
2026-05-07 21:24 38.90618 -92.52143 28984 ft 486 kts 115°
2026-05-07 21:24 38.89384 -92.48173 28932 ft 472 kts 115°
2026-05-07 21:24 38.88169 -92.44281 28580 ft 467 kts 115°
2026-05-07 21:25 38.86967 -92.40444 28250 ft 462 kts 115°
2026-05-07 21:25 38.85772 -92.36641 27854 ft 458 kts 115°
2026-05-07 21:25 38.84587 -92.32870 27487 ft 454 kts 115°
2026-05-07 21:25 38.83408 -92.29124 27098 ft 451 kts 115°
2026-05-07 21:26 38.82236 -92.25404 26721 ft 448 kts 115°
2026-05-07 21:26 38.81170 -92.21666 26337 ft 447 kts 108°
2026-05-07 21:26 38.80539 -92.17796 26126 ft 440 kts 98°
2026-05-07 21:26 38.80109 -92.13926 25764 ft 437 kts 97°
2026-05-07 21:27 38.79709 -92.10077 25412 ft 434 kts 97°
2026-05-07 21:27 38.79313 -92.06252 25042 ft 432 kts 97°
2026-05-07 21:27 38.78909 -92.02439 24676 ft 431 kts 97°
2026-05-07 21:27 38.78495 -91.98643 24290 ft 429 kts 97°
2026-05-07 21:28 38.78075 -91.94860 23899 ft 428 kts 97°
2026-05-07 21:28 38.77649 -91.91085 23491 ft 427 kts 97°
2026-05-07 21:28 38.77227 -91.87374 23054 ft 426 kts 98°
2026-05-07 21:28 38.76799 -91.83629 22649 ft 423 kts 98°
2026-05-07 21:29 38.76373 -91.79909 22259 ft 421 kts 98°
2026-05-07 21:29 38.75948 -91.76214 21857 ft 418 kts 97°
2026-05-07 21:29 38.75519 -91.72495 21476 ft 415 kts 98°
2026-05-07 21:29 38.75104 -91.68895 21097 ft 413 kts 97°
2026-05-07 21:30 38.74685 -91.65276 20728 ft 410 kts 97°
2026-05-07 21:30 38.74266 -91.61672 20346 ft 408 kts 97°
2026-05-07 21:30 38.73849 -91.58092 19971 ft 406 kts 97°
2026-05-07 21:30 38.73434 -91.54530 19591 ft 404 kts 97°
2026-05-07 21:31 38.73019 -91.50984 19208 ft 402 kts 97°
2026-05-07 21:31 38.72604 -91.47449 18829 ft 400 kts 97°
2026-05-07 21:31 38.72190 -91.43931 18451 ft 399 kts 97°
2026-05-07 21:31 38.71777 -91.40424 18020 ft 398 kts 97°
2026-05-07 21:32 38.71364 -91.36933 17605 ft 395 kts 97°
2026-05-07 21:32 38.70952 -91.33463 17209 ft 393 kts 97°
2026-05-07 21:32 38.70543 -91.30015 16818 ft 390 kts 97°
2026-05-07 21:32 38.70136 -91.26594 16437 ft 387 kts 97°
2026-05-07 21:33 38.69730 -91.23198 16055 ft 385 kts 97°
2026-05-07 21:33 38.69377 -91.19815 15685 ft 381 kts 90°
2026-05-07 21:33 38.69390 -91.16463 15442 ft 372 kts 84°
2026-05-07 21:33 38.69533 -91.13180 15166 ft 367 kts 83°
2026-05-07 21:34 38.69667 -91.09937 14840 ft 364 kts 84°
2026-05-07 21:34 38.69777 -91.06709 14502 ft 362 kts 84°
2026-05-07 21:34 38.69862 -91.03499 14153 ft 360 kts 85°
2026-05-07 21:34 38.69939 -91.00293 13762 ft 360 kts 85°
2026-05-07 21:35 38.70014 -90.97097 13357 ft 358 kts 85°
2026-05-07 21:35 38.70088 -90.93918 12974 ft 356 kts 85°
2026-05-07 21:35 38.70162 -90.90757 12595 ft 354 kts 85°
2026-05-07 21:35 38.70235 -90.87620 12214 ft 352 kts 85°
2026-05-07 21:36 38.70308 -90.84499 11849 ft 349 kts 85°
2026-05-07 21:36 38.70379 -90.81403 11489 ft 347 kts 85°
2026-05-07 21:36 38.70449 -90.78319 11118 ft 345 kts 86°
2026-05-07 21:36 38.70517 -90.75260 10756 ft 343 kts 86°
2026-05-07 21:37 38.70585 -90.72221 10397 ft 341 kts 85°
2026-05-07 21:37 38.70693 -90.69204 10038 ft 338 kts 84°
2026-05-07 21:37 38.70831 -90.66243 9949 ft 325 kts 84°
2026-05-07 21:37 38.70965 -90.63416 9916 ft 312 kts 84°
2026-05-07 21:38 38.71089 -90.60690 9807 ft 302 kts 84°
2026-05-07 21:38 38.71208 -90.58024 9519 ft 299 kts 84°
2026-05-07 21:38 38.71322 -90.55408 9185 ft 297 kts 84°
2026-05-07 21:38 38.71254 -90.52741 8835 ft 298 kts 104°
2026-05-07 21:39 38.70448 -90.50380 8559 ft 293 kts 123°
2026-05-07 21:39 38.69359 -90.48199 8434 ft 283 kts 124°
2026-05-07 21:39 38.68309 -90.46117 8342 ft 273 kts 124°
2026-05-07 21:39 38.67297 -90.44099 8204 ft 266 kts 124°
2026-05-07 21:40 38.66309 -90.42116 7949 ft 264 kts 124°
2026-05-07 21:40 38.65329 -90.40138 7666 ft 262 kts 124°
2026-05-07 21:40 38.64359 -90.38175 7397 ft 260 kts 125°
2026-05-07 21:40 38.63397 -90.36229 7140 ft 259 kts 125°
2026-05-07 21:41 38.62441 -90.34294 6883 ft 258 kts 125°
2026-05-07 21:41 38.61492 -90.32368 6633 ft 257 kts 123°
2026-05-07 21:41 38.60817 -90.30289 6337 ft 259 kts 102°
2026-05-07 21:41 38.60770 -90.27975 6087 ft 257 kts 78°
2026-05-07 21:42 38.61371 -90.25893 5825 ft 252 kts 55°
2026-05-07 21:42 38.62510 -90.24234 5545 ft 247 kts 34°
2026-05-07 21:42 38.63964 -90.23120 5245 ft 243 kts 17°
2026-05-07 21:42 38.65585 -90.22664 4945 ft 237 kts 356°
2026-05-07 21:43 38.67192 -90.22944 4611 ft 232 kts 336°
2026-05-07 21:43 38.68614 -90.23957 3894 ft 243 kts 318°
2026-05-07 21:43 38.69769 -90.25570 3184 ft 251 kts 300°
2026-05-07 21:43 38.70696 -90.27511 2453 ft 260 kts 298°
2026-05-07 21:44 38.71655 -90.29490 1691 ft 260 kts 299°
2026-05-07 21:44 38.72589 -90.31384 1148 ft 239 kts 300°
2026-05-07 21:44 38.73392 -90.33013 883 ft 198 kts 299°
2026-05-07 21:44 38.74098 -90.34425 758 ft 188 kts 295°
2026-05-07 21:45 38.74826 -90.35894 1376 ft 209 kts 304°
2026-05-07 21:45 38.75946 -90.37125 2370 ft 217 kts 326°
2026-05-07 21:45 38.77460 -90.37650 3116 ft 241 kts
2026-05-07 21:45 38.78877 -90.36730 3614 ft 228 kts 47°
2026-05-07 21:46 38.79541 -90.34938 3799 ft 220 kts 83°
2026-05-07 21:46 38.79504 -90.33049 4034 ft 210 kts 105°
2026-05-07 21:46 38.78987 -90.31293 4045 ft 211 kts 122°
2026-05-07 21:46 38.78235 -90.29697 4045 ft 211 kts 126°
2026-05-07 21:47 38.77430 -90.28066 3773 ft 222 kts 127°
2026-05-07 21:47 38.76510 -90.26503 3793 ft 215 kts 135°
2026-05-07 21:47 38.75499 -90.25066 3567 ft 222 kts 140°
2026-05-07 21:47 38.74266 -90.23924 3415 ft 218 kts 159°
2026-05-07 21:48 38.72795 -90.23609 3109 ft 215 kts 193°
2026-05-07 21:48 38.71482 -90.24372 2941 ft 206 kts 223°
2026-05-07 21:48 38.70779 -90.25885 2671 ft 200 kts 256°
2026-05-07 21:48 38.70676 -90.27692 2027 ft 208 kts 276°
2026-05-07 21:49 38.71307 -90.29282 1701 ft 201 kts 308°
2026-05-07 21:49 38.72188 -90.30533 1391 ft 176 kts 298°
2026-05-07 21:49 38.72783 -90.31792 1149 ft 155 kts 300°
2026-05-07 21:49 38.73357 -90.32924 817 ft 154 kts 300°
2026-05-07 21:50 38.73932 -90.34106 622 ft 157 kts 295°
2026-05-07 21:50 38.74418 -90.35140 575 ft 104 kts 306°
2026-05-07 21:50 38.74606 -90.35470 571 ft 23 kts 300°
2026-05-07 21:50 38.74688 -90.35642 568 ft 22 kts 322°
2026-05-07 21:51 38.74835 -90.35647 565 ft 13 kts 23°
2026-05-07 21:51 38.74814 -90.35554 563 ft 12 kts 126°
2026-05-07 21:51 38.74766 -90.35464 571 ft 12 kts 123°
2026-05-07 21:51 38.74722 -90.35373 568 ft 12 kts 121°
2026-05-07 21:52 38.74681 -90.35283 570 ft 12 kts 120°
2026-05-07 21:52 38.74682 -90.35192 572 ft 11 kts 41°
2026-05-07 21:52 38.74746 -90.35137 572 ft 11 kts 31°
2026-05-07 21:52 38.74810 -90.35087 572 ft 11 kts 31°
2026-05-07 21:53 38.74870 -90.35036 575 ft 10 kts 50°
2026-05-07 21:53 38.74911 -90.34966 579 ft 10 kts 33°
2026-05-07 21:53 38.74936 -90.34947 578 ft 0 kts 30°
2026-05-07 21:53 38.74937 -90.34946 579 ft 0 kts 31°